User: anonymous   Login
Location: Unspecified
(0.0000°N, 0.0000°E)
Time: 00:38:57
(UTC+02:00)
Language:

Cosmos 407 Rocket - Orbit

View from above orbital plane
View from above orbital plane
View from above satellite
View from above satellite

Ground track
Ground track

The orbit data is extracted from the following two-line orbital elements,

1 05175U 71035B   16243.36363918  .00000078  00000-0  34547-4 0  9991
2 05175  74.0488  24.2697 0030876 304.3509  55.4724 14.37815142373140
Epoch (UTC): 30 August 2016 08:43:38
Eccentricity: 0.0030876
inclination: 74.0488°
perigee height: 743 km
apogee height: 788 km
right ascension of ascending node: 24.2697°
argument of perigee: 304.3509°
revolutions per day: 14.37815142
mean anomaly at epoch: 55.4724°
orbit number at epoch: 37314

The dashed part of the orbit path shows where the satellite is in the earth's shadow,  

DLR